Sarasota, FL

8:28 AM EDT on October 16, 2019 (GMT -0400)
Sarasota-bradenton

Weather History for KSRQ - August, 2019

Change the Weather History Date:

Monday, August 12, 2019

  Actual Average Record
Temperature  
Mean Temperature 86 °F 82 °F  
Max Temperature 91 °F 90 °F 96 °F (1973)
Min Temperature 80 °F 74 °F 68 °F (1922)
Degree Days  
Heating Degree Days 0 0  
Month to date heating degree days 0 0  
Since 1 June heating degree days 0 0  
Since 1 July heating degree days 0 0  
Cooling Degree Days 21 17  
Month to date cooling degree days 229 204  
Year to date cooling degree days 2500 1966  
Since 1 June cooling degree days 1343 1215  
Growing Degree Days 35 (Base 50)    
Moisture  
Dew Point 79 °F    
Average Humidity 85    
Maximum Humidity 94    
Minimum Humidity 70    
Precipitation  
Precipitation 0.16 in 0.30 in 4.22 in (1939)
Month to date precipitation 3.35 3.32  
Year to date precipitation 31.88 32.51  
Sea Level Pressure  
Sea Level Pressure 29.93 in    
Wind  
Wind Speed 6 mph (West)    
Max Wind Speed 16 mph    
Max Gust Speed 21 mph    
Visibility 9 miles    
Events Rain , Thunderstorm    
T = Trace of Precipitation, MM = Missing Value Source: NWS Daily Summary

Daily Weather History Graph

Daily Weather History Graph

Search for Another Location

Airport or City:

Astronomy

Aug. 12, 2019 Rise Set
Actual Time 6:59 AM EDT 8:10 PM EDT
Civil Twilight 6:34 AM EDT 8:35 PM EDT
Nautical Twilight 6:05 AM EDT 9:04 PM EDT
Astronomical Twilight 5:35 AM EDT 9:34 PM EDT
Moon 6:27 PM EDT (8/12) 4:19 AM EDT (8/12)
Length of Visible Light 14h 00m
Length of Day
13h 11m
Waxing Gibbous, 93% of the Moon is Illuminated
Aug 12
Waxing Gibbous
Aug 15
Full
Aug 23
Last Quarter
Aug 30
New
Sep 5
First Quarter

Hourly Weather History & Observations

Time (EDT) Temp. Heat Index Dew Point Humidity Pressure Visibility Wind Dir Wind Speed Gust Speed Precip Events Conditions
12:34 AM 84.0 °F 94.8 °F 78.1 °F 82% 29.96 in 10.0 mi NNW 10.4 mph - 0.00 in Rain Light Rain
12:53 AM 81.0 °F 88.6 °F 78.1 °F 91% 29.96 in 1.8 mi Variable 3.5 mph - 0.21 in Rain Heavy Rain
1:02 AM 81.0 °F 87.9 °F 77.0 °F 88% 29.95 in 2.0 mi East 6.9 mph - 0.06 in Rain , Thunderstorm Heavy Thunderstorms and Rain
1:09 AM 81.0 °F 87.9 °F 77.0 °F 88% 29.96 in 9.0 mi East 4.6 mph - 0.06 in Rain , Thunderstorm Light Thunderstorms and Rain
1:25 AM 82.0 °F 90.2 °F 77.0 °F 85% 29.94 in 10.0 mi Calm Calm - 0.06 in Rain , Thunderstorm Light Thunderstorms and Rain
1:34 AM 81.0 °F 87.9 °F 77.0 °F 88% 29.94 in 10.0 mi Calm Calm - 0.06 in   Scattered Clouds
1:53 AM 80.1 °F 86.4 °F 78.1 °F 94% 29.93 in 10.0 mi SE 3.5 mph - 0.06 in   Partly Cloudy
2:53 AM 82.0 °F 91.6 °F 79.0 °F 90% 29.91 in 10.0 mi WNW 4.6 mph - N/A   Clear
3:53 AM 82.9 °F 92.8 °F 78.1 °F 85% 29.88 in 10.0 mi WSW 3.5 mph - N/A   Clear
4:28 AM 82.0 °F 91.6 °F 79.0 °F 90% 29.89 in 10.0 mi Calm Calm - N/A   Mostly Cloudy
4:51 AM 82.4 °F 92.4 °F 78.8 °F 89% 29.89 in 10.0 mi WSW 4.6 mph - N/A   Scattered Clouds
4:53 AM 82.9 °F 93.8 °F 79.0 °F 88% 29.89 in 10.0 mi WSW 5.8 mph - N/A   Partly Cloudy
5:53 AM 82.9 °F 92.8 °F 78.1 °F 85% 29.89 in 10.0 mi West 6.9 mph - N/A   Partly Cloudy
6:50 AM 82.4 °F 92.4 °F 78.8 °F 89% 29.90 in 10.0 mi WNW 3.5 mph - N/A   Mostly Cloudy
6:51 AM 82.4 °F 92.4 °F 78.8 °F 89% 29.90 in 10.0 mi Calm Calm - N/A   Mostly Cloudy
6:53 AM 82.9 °F 93.8 °F 79.0 °F 88% 29.90 in 10.0 mi Calm Calm - N/A   Mostly Cloudy
7:53 AM 82.9 °F 94.8 °F 80.1 °F 91% 29.93 in 10.0 mi Calm Calm - N/A   Mostly Cloudy
8:03 AM 82.9 °F 94.8 °F 80.1 °F 91% 29.94 in 10.0 mi Calm Calm - N/A   Mostly Cloudy
8:06 AM 84.0 °F 97.3 °F 80.1 °F 88% 29.94 in 10.0 mi Calm Calm - N/A   Scattered Clouds
8:53 AM 86.0 °F 98.3 °F 78.1 °F 77% 29.95 in 10.0 mi WNW 4.6 mph - N/A   Scattered Clouds
9:53 AM 84.9 °F 97.5 °F 79.0 °F 82% 29.97 in 8.0 mi NW 6.9 mph - 0.00 in Rain Light Rain
10:53 AM 88.0 °F 101.3 °F 78.1 °F 72% 29.96 in 10.0 mi NW 9.2 mph - 0.00 in   Partly Cloudy
11:53 AM 88.0 °F 100.2 °F 77.0 °F 70% 29.97 in 10.0 mi WNW 11.5 mph - N/A   Scattered Clouds
12:53 PM 89.1 °F 104.4 °F 79.0 °F 72% 29.96 in 10.0 mi WSW 8.1 mph - N/A   Partly Cloudy
1:53 PM 90.0 °F 107.9 °F 80.1 °F 73% 29.95 in 10.0 mi West 11.5 mph - N/A   Clear
2:19 PM 89.1 °F 104.4 °F 79.0 °F 72% 29.95 in 10.0 mi WSW 12.7 mph - N/A Thunderstorm Partly Cloudy
2:34 PM 87.1 °F 101.5 °F 79.0 °F 77% 29.95 in 10.0 mi SW 15.0 mph 19.6 mph N/A   Scattered Clouds
2:53 PM 86.0 °F 99.3 °F 79.0 °F 79% 29.94 in 10.0 mi SW 10.4 mph - N/A   Mostly Cloudy
3:53 PM 84.9 °F 97.5 °F 79.0 °F 82% 29.91 in 10.0 mi WSW 15.0 mph - N/A   Mostly Cloudy
4:53 PM 86.0 °F 100.8 °F 80.1 °F 82% 29.90 in 10.0 mi WSW 11.5 mph - N/A   Partly Cloudy
5:53 PM 87.1 °F 101.5 °F 79.0 °F 77% 29.91 in 10.0 mi West 8.1 mph - N/A   Clear
6:53 PM 86.0 °F 98.3 °F 78.1 °F 77% 29.91 in 10.0 mi West 8.1 mph - 0.00 in   Clear
7:20 PM 84.9 °F 96.6 °F 78.1 °F 80% 29.91 in 10.0 mi West 5.8 mph - N/A Thunderstorm Partly Cloudy
7:35 PM 84.9 °F 96.6 °F 78.1 °F 80% 29.92 in 10.0 mi WNW 5.8 mph - 0.01 in Rain Light Rain
7:53 PM 84.0 °F 96.0 °F 79.0 °F 85% 29.92 in 10.0 mi West 5.8 mph - 0.02 in Rain Light Rain
8:07 PM 84.0 °F 96.0 °F 79.0 °F 85% 29.92 in 10.0 mi WNW 4.6 mph - 0.00 in Rain , Thunderstorm Light Rain
8:16 PM 82.9 °F 93.8 °F 79.0 °F 88% 29.92 in 10.0 mi NNW 4.6 mph - 0.00 in Rain , Thunderstorm Light Thunderstorms and Rain
8:42 PM 80.1 °F 86.4 °F 78.1 °F 94% 29.92 in 4.0 mi NNE 5.8 mph - 0.04 in Rain , Thunderstorm Rain
8:53 PM 80.1 °F 86.4 °F 78.1 °F 94% 29.93 in 4.0 mi Calm Calm - 0.06 in Rain Rain
9:53 PM 80.1 °F 86.4 °F 78.1 °F 94% 29.92 in 10.0 mi Calm Calm - 0.07 in Rain Light Rain
10:53 PM 80.1 °F 86.4 °F 78.1 °F 94% 29.92 in 10.0 mi Calm Calm - 0.01 in   Clear
11:53 PM 82.0 °F 92.8 °F 80.1 °F 94% 29.90 in 10.0 mi West 4.6 mph - N/A   Clear